[[{"header":{"parameterUnit":"m.s-1","parameterCategory":1,"la1":30.2991,"la2":30.254,"lo1":-89.0895,"lo2":-89.0444,"dy":0.0017,"dx":0.0017,"nx":28,"ny":28,"refTime":"2024-05-24T21:00:00:Z","depth":0,"parameterNumber":2,"parameterNumberName":"U-component_of_WINDS"},"data":[0,0,0,0,0,0,0,0,0,0,0,0,0,0,0,0,0,0,0,0,0,0,0,0,0,0,0,0,0,0,0,0,0,0,0,0,0,0,0,0,0,0,0,0,0,0,0,0,0,0,0,0,0,0,0,0,0,0,-0.4719,-0.4718,0,-0.47,-0.47,-0.47,-0.4657,-0.4657,-0.4656,-0.4655,-0.4636,-0.4637,-0.4637,0,0,0,0,0,0,0,0,0,0,0,0,0,-0.472,-0.472,-0.4719,-0.4718,-0.4718,-0.47,-0.47,-0.4699,-0.4658,-0.4656,-0.4655,-0.4654,-0.4636,-0.4636,-0.4637,0,0,0,0,0,0,0,0,0,0,0,0,0,-0.4712,-0.472,-0.4719,-0.4695,-0.4693,-0.47,-0.47,-0.4699,-0.4658,-0.4656,-0.4655,-0.4654,-0.4636,-0.4636,-0.4637,-0.4666,0,0,-0.4638,-0.4639,0,0,0,0,0,0,0,0,-0.4712,-0.4712,-0.4699,-0.4697,-0.4694,-0.468,-0.4693,-0.4688,-0.4658,-0.4671,-0.4655,-0.4653,-0.4652,-0.4651,-0.465,-0.4665,-0.4664,-0.4638,-0.4639,-0.4639,-0.4639,0,0,0,0,0,0,0,-0.4713,-0.4713,-0.4711,-0.4699,-0.4696,-0.4686,-0.4683,-0.4692,-0.4669,-0.467,-0.4667,-0.4665,-0.465,-0.465,-0.4649,-0.4664,-0.4638,-0.4639,-0.4639,-0.4639,-0.4703,-0.4704,0,0,0,0,0,0,-0.4717,-0.4713,-0.4712,-0.4711,-0.47,-0.4687,-0.4684,-0.4686,-0.4669,-0.4665,-0.4666,-0.4663,-0.465,-0.4649,-0.4649,-0.4682,-0.4639,-0.4639,-0.464,-0.4702,-0.4703,-0.4705,0,0,0,0,0,0,-0.4717,-0.4717,-0.4713,-0.4711,-0.471,-0.4688,-0.469,-0.4686,-0.4685,-0.4666,-0.4662,-0.467,-0.4649,-0.4648,-0.4662,-0.4681,-0.464,-0.464,-0.47,-0.4702,-0.4704,-0.4749,0,0,0,0,0,0,-0.4717,-0.4717,-0.4728,-0.4712,-0.471,-0.4726,-0.4691,-0.4686,-0.4686,-0.4682,-0.4668,-0.4665,-0.4648,-0.4662,-0.4663,-0.4681,-0.464,-0.4698,-0.4701,-0.4704,-0.4746,-0.4752,-0.4758,0,0,0,0,0,-0.4717,-0.4741,-0.4728,-0.4728,-0.4722,-0.4727,-0.4726,-0.4706,-0.4688,-0.4698,-0.4686,-0.4665,-0.4679,-0.4664,-0.4664,-0.4683,-0.4697,-0.47,-0.4703,-0.4743,-0.4751,-0.4758,0,0,0,0,0,0,-0.4759,-0.4738,-0.4724,-0.4743,-0.4737,-0.472,-0.4732,-0.4715,-0.4714,-0.471,-0.4685,-0.4682,-0.47,-0.4693,-0.4676,-0.4711,-0.4685,-0.4688,-0.4714,-0.4722,-0.4728,-0.4729,-0.4641,0,0,0,0,0,-0.477,-0.4776,-0.4757,-0.4776,-0.4773,-0.4754,-0.4755,-0.474,-0.4733,-0.473,-0.4719,-0.4713,-0.4717,-0.4719,-0.4721,-0.4745,-0.4742,-0.4758,-0.4764,-0.4769,-0.4772,-0.4786,-0.4793,-0.4715,-0.4715,-0.4715,0,0,-0.4794,-0.4783,-0.4788,-0.4784,-0.4777,-0.4784,-0.4752,-0.476,-0.4765,-0.4731,-0.4744,-0.4736,-0.4728,-0.4748,-0.4756,-0.4743,-0.4793,-0.4773,-0.4778,-0.4778,-0.479,-0.4797,-0.4804,-0.4718,-0.4717,-0.4717,0,0,-0.4839,-0.4832,-0.4847,-0.4841,-0.4833,-0.482,-0.4824,-0.481,-0.4803,-0.4816,-0.4791,-0.4797,-0.4803,-0.4799,-0.4797,-0.4844,-0.4825,-0.4846,-0.4877,-0.4891,-0.4897,-0.4902,-0.4919,-0.4925,-0.4849,-0.4849,-0.4849,0,-0.4869,-0.4878,-0.4856,-0.4866,-0.4866,-0.4837,-0.4852,-0.4849,-0.4841,-0.4842,-0.4827,-0.4834,-0.4827,-0.4846,-0.4857,-0.4857,-0.4861,-0.4846,-0.4898,-0.4903,-0.4907,-0.4923,-0.493,-0.4852,-0.4851,-0.4851,-0.4851,0,-0.4916,-0.4922,-0.4935,-0.4929,-0.493,-0.4943,-0.4924,-0.4928,-0.4914,-0.4903,-0.4917,-0.4908,-0.4907,-0.4911,-0.4897,-0.4928,-0.492,-0.4902,-0.4875,-0.4918,-0.4932,-0.4938,-0.4855,-0.4854,-0.4854,-0.4853,0,0,-0.4985,-0.4968,-0.4974,-0.4971,-0.496,-0.4965,-0.4978,-0.4978,-0.4982,-0.4978,-0.4988,-0.4995,-0.4978,-0.4977,-0.4962,-0.4974,-0.5013,-0.4954,-0.4954,-0.4966,-0.5048,-0.5061,-0.5068,-0.5001,-0.5002,-0.5003,-0.5048,0,-0.5028,-0.5047,-0.5029,-0.5052,-0.5059,-0.5033,-0.5044,-0.5039,-0.5029,-0.5034,-0.5024,-0.5029,-0.5007,-0.5006,-0.5016,-0.5006,-0.5029,-0.5002,-0.501,-0.501,-0.5012,-0.5076,-0.509,-0.5133,-0.5054,-0.5055,-0.5055,0,-0.508,-0.508,-0.5103,-0.5093,-0.5095,-0.5105,-0.5104,-0.5109,-0.5103,-0.5096,-0.5096,-0.5078,-0.509,-0.5065,-0.5082,-0.5064,-0.5067,-0.5062,-0.5064,-0.5063,-0.5035,-0.5077,-0.5146,-0.5153,-0.5064,-0.5063,-0.5063,0,-0.5129,-0.5134,-0.5149,-0.5148,-0.5136,-0.5143,-0.5139,-0.5132,-0.5134,-0.5134,-0.5135,-0.5136,-0.5137,-0.5139,-0.5123,-0.5106,-0.5142,-0.5115,-0.5136,-0.5137,-0.5144,-0.5144,-0.5215,-0.5147,-0.5147,-0.5147,-0.5147,0,-0.5178,-0.5194,-0.5171,-0.518,-0.5197,-0.5177,-0.5195,-0.5188,-0.5183,-0.5191,-0.5169,-0.5177,-0.5155,-0.5162,-0.5149,-0.5166,-0.5166,-0.5161,-0.5157,-0.5162,-0.5163,-0.5163,-0.5159,-0.5148,-0.5148,-0.5148,-0.5147,0,-0.5234,-0.522,-0.5234,-0.5222,-0.522,-0.5233,-0.5223,-0.5232,-0.5222,-0.5232,-0.5234,-0.5218,-0.5224,-0.5209,-0.5213,-0.5205,-0.5228,-0.522,-0.523,-0.5227,-0.5249,-0.5247,-0.5322,-0.5331,-0.5258,-0.5258,-0.5259,0,-0.5266,-0.5278,-0.5268,-0.5271,-0.5268,-0.5275,-0.5277,-0.5258,-0.5261,-0.5257,-0.5267,-0.5271,-0.5274,-0.5285,-0.5275,-0.5278,-0.5269,-0.5296,-0.527,-0.5275,-0.527,-0.5269,-0.527,-0.53,-0.5301,-0.5302,-0.5303,0,-0.5325,-0.5318,-0.5321,-0.5323,-0.5326,-0.5327,-0.5325,-0.533,-0.5311,-0.5316,-0.5322,-0.5324,-0.5329,-0.5334,-0.5335,-0.5331,-0.5314,-0.5311,-0.5316,-0.5321,-0.5326,-0.5324,-0.5244,-0.5309,-0.5309,-0.5308,-0.5308,-0.5307,-0.537,-0.5379,-0.5374,-0.5379,-0.5377,-0.5377,-0.5384,-0.5376,-0.5381,-0.5383,-0.5373,-0.5382,-0.5378,-0.5378,-0.5376,-0.5383,-0.5371,-0.5378,-0.538,-0.5382,-0.5385,-0.5326,-0.5383,-0.5383,-0.5383,-0.5382,-0.5382,0,-0.5427,-0.5423,-0.5428,-0.5428,-0.5432,-0.5417,-0.5415,-0.542,-0.5428,-0.5426,-0.5429,-0.5438,-0.5443,-0.5433,-0.5437,-0.5445,-0.5437,-0.5447,-0.5445,-0.5445,-0.5396,-0.5391,-0.5453,-0.5453,-0.5453,-0.5453,-0.5453,-0.5453,-0.5458,-0.5473,-0.5466,-0.548,-0.5476,-0.5484,-0.5485,-0.5485,-0.5483,-0.5493,-0.5498,-0.5492,-0.5487,-0.5491,-0.5495,-0.5493,-0.5495,-0.5507,-0.5501,-0.5455,-0.5448,-0.5442,-0.5437,-0.5508,-0.5508,-0.555,-0.555,-0.5551]},{"header":{"parameterUnit":"m.s-1","parameterCategory":1,"la1":30.2991,"la2":30.254,"lo1":-89.0895,"lo2":-89.0444,"dy":0.0017,"dx":0.0017,"nx":28,"ny":28,"refTime":"2024-05-24T21:00:00:Z","depth":0,"parameterNumber":3,"parameterNumberName":"V-component_of_WINDS"},"data":[0,0,0,0,0,0,0,0,0,0,0,0,0,0,0,0,0,0,0,0,0,0,0,0,0,0,0,0,0,0,0,0,0,0,0,0,0,0,0,0,0,0,0,0,0,0,0,0,0,0,0,0,0,0,0,0,0,0,5.889,5.889,0,5.8822,5.8821,5.882,5.8777,5.8776,5.8776,5.8776,5.8701,5.8699,5.8698,0,0,0,0,0,0,0,0,0,0,0,0,0,5.898,5.8979,5.889,5.8889,5.8889,5.8822,5.8821,5.882,5.8777,5.8776,5.8776,5.8776,5.8702,5.87,5.8697,0,0,0,0,0,0,0,0,0,0,0,0,0,5.8929,5.8978,5.889,5.8859,5.8856,5.8822,5.8821,5.882,5.8777,5.8776,5.8776,5.8776,5.8702,5.87,5.8697,5.8688,0,0,5.8689,5.8688,0,0,0,0,0,0,0,0,5.8932,5.8926,5.8864,5.8861,5.8857,5.8807,5.8825,5.8775,5.8777,5.8806,5.8776,5.8775,5.8736,5.8731,5.8719,5.8685,5.8681,5.8689,5.8687,5.8686,5.8685,0,0,0,0,0,0,0,5.8936,5.8929,5.8863,5.8864,5.8859,5.8847,5.884,5.8815,5.8774,5.8804,5.8801,5.8793,5.8734,5.8721,5.8717,5.868,5.8689,5.8687,5.8685,5.8684,5.8636,5.8636,0,0,0,0,0,0,5.8945,5.8932,5.8865,5.8861,5.8895,5.8846,5.8837,5.8824,5.8774,5.8767,5.8794,5.8791,5.8726,5.872,5.8714,5.87,5.8686,5.8684,5.8682,5.8636,5.8636,5.8636,0,0,0,0,0,0,5.8947,5.8939,5.8868,5.8895,5.8886,5.8845,5.883,5.8822,5.881,5.8767,5.8759,5.8788,5.8726,5.8718,5.8695,5.8697,5.8682,5.868,5.8635,5.8636,5.8636,5.8673,0,0,0,0,0,0,5.895,5.894,5.8937,5.8896,5.8884,5.8852,5.883,5.8821,5.8806,5.8802,5.876,5.8752,5.8725,5.87,5.8693,5.8693,5.8678,5.8635,5.8635,5.8636,5.8672,5.8675,5.8678,0,0,0,0,0,5.8953,5.8949,5.8937,5.8929,5.888,5.8852,5.8845,5.8815,5.8806,5.8802,5.8775,5.8753,5.8698,5.8698,5.869,5.8689,5.8635,5.8635,5.8636,5.867,5.8674,5.8678,0,0,0,0,0,0,5.899,5.8943,5.8929,5.8912,5.8887,5.8845,5.8839,5.882,5.8795,5.8793,5.8755,5.8746,5.8727,5.8706,5.8706,5.8678,5.8664,5.8663,5.8693,5.8696,5.8699,5.8705,5.8676,0,0,0,0,0,5.8996,5.8979,5.8939,5.8927,5.8916,5.888,5.8866,5.8846,5.8817,5.8805,5.8776,5.8748,5.8724,5.8709,5.8685,5.8669,5.8659,5.8665,5.8668,5.8671,5.867,5.866,5.8663,5.8639,5.8639,5.8639,0,0,5.9009,5.8981,5.8972,5.8934,5.8912,5.8894,5.8871,5.8852,5.8838,5.8802,5.8779,5.8757,5.8723,5.8704,5.8694,5.8686,5.8675,5.8672,5.8674,5.8672,5.8661,5.8664,5.8666,5.8639,5.8639,5.8639,0,0,5.9022,5.9,5.8989,5.8967,5.8935,5.8911,5.8909,5.887,5.8854,5.8832,5.8804,5.8786,5.8746,5.8723,5.8707,5.8713,5.8693,5.8706,5.8722,5.8713,5.8715,5.8716,5.8719,5.872,5.8706,5.8706,5.8706,0,5.9041,5.9014,5.8985,5.8968,5.8952,5.8921,5.8909,5.8889,5.8849,5.8839,5.883,5.878,5.8755,5.8731,5.8733,5.872,5.8715,5.8711,5.8717,5.8719,5.8719,5.8721,5.8722,5.8708,5.8708,5.8708,5.8708,0,5.904,5.9021,5.9016,5.8981,5.8964,5.895,5.8917,5.8904,5.8885,5.8862,5.8839,5.8808,5.8778,5.8771,5.8751,5.8744,5.8739,5.8725,5.8709,5.8724,5.8725,5.8726,5.8711,5.871,5.871,5.8709,0,0,5.9073,5.9023,5.9021,5.9006,5.8968,5.8952,5.8937,5.8909,5.8898,5.8872,5.8857,5.8825,5.8812,5.8793,5.8771,5.8763,5.8771,5.8749,5.8748,5.8754,5.8761,5.8772,5.8773,5.8757,5.8757,5.8757,5.8764,0,5.9081,5.9053,5.9026,5.9007,5.8989,5.896,5.8947,5.8922,5.89,5.8881,5.8857,5.8835,5.8819,5.8807,5.8799,5.8772,5.8771,5.8771,5.8743,5.8742,5.8752,5.8774,5.8785,5.8792,5.8764,5.8764,5.8764,0,5.9085,5.9063,5.9043,5.9008,5.9,5.8988,5.8961,5.8944,5.8915,5.8899,5.888,5.8857,5.8838,5.8826,5.8799,5.8799,5.8786,5.8772,5.8771,5.8767,5.8754,5.877,5.8794,5.8795,5.8764,5.8764,5.8764,0,5.9112,5.9076,5.906,5.9047,5.9006,5.8999,5.8981,5.8952,5.8937,5.8913,5.8903,5.8876,5.8861,5.8841,5.8811,5.8805,5.8788,5.8773,5.8774,5.8775,5.8771,5.8772,5.8793,5.8763,5.8763,5.8763,5.8763,0,5.9123,5.9111,5.9072,5.9061,5.9048,5.9017,5.9004,5.8984,5.8959,5.8943,5.8916,5.8902,5.8864,5.8845,5.8822,5.8804,5.8797,5.8784,5.8778,5.8786,5.8788,5.8776,5.8775,5.8764,5.8764,5.8764,5.8764,0,5.9149,5.9122,5.9102,5.9066,5.9057,5.9049,5.9017,5.9005,5.8983,5.8964,5.8958,5.8923,5.8899,5.8868,5.8835,5.8819,5.8804,5.8794,5.8814,5.881,5.8813,5.8814,5.8828,5.8829,5.8799,5.88,5.88,0,5.9158,5.9149,5.9113,5.9101,5.9085,5.9067,5.9052,5.9022,5.9008,5.8975,5.8968,5.8943,5.8921,5.8885,5.8856,5.883,5.8819,5.8826,5.8815,5.8824,5.8819,5.882,5.8819,5.8829,5.8829,5.883,5.883,0,5.9176,5.9164,5.9144,5.9121,5.9105,5.9085,5.9063,5.9055,5.902,5.9005,5.8982,5.8965,5.8932,5.8908,5.8879,5.8859,5.8839,5.8834,5.8833,5.8841,5.8853,5.8847,5.8821,5.8834,5.8833,5.8833,5.8833,5.8833,5.9193,5.9185,5.9158,5.9138,5.9119,5.91,5.9088,5.9065,5.9046,5.9018,5.9001,5.8979,5.895,5.891,5.8891,5.8873,5.8864,5.8863,5.8862,5.8862,5.8865,5.8857,5.8867,5.8867,5.8867,5.8867,5.8867,0,5.921,5.9192,5.9174,5.9146,5.913,5.9115,5.909,5.9077,5.9059,5.9035,5.9015,5.8989,5.8965,5.8935,5.8909,5.89,5.889,5.8895,5.8895,5.8891,5.8874,5.8878,5.8903,5.8903,5.8903,5.8903,5.8903,5.8903,5.9217,5.9201,5.9186,5.9161,5.9142,5.9122,5.9109,5.9091,5.9072,5.9045,5.9026,5.9007,5.8981,5.8953,5.8931,5.8922,5.8914,5.8921,5.891,5.8895,5.8892,5.8888,5.8892,5.892,5.892,5.8928,5.8928,5.8928]}]]